Location: Sobotiste
(48.7170°N, 17.4000°E)
Time: 00:31:49
(UTC+01:00)

ESTCUBE 1 - Visible Passes

Search period start: 14 March 2026 00:00
Search period end: 24 March 2026 00:00
Orbit: 621 x 631 km, 97.7° (Epoch: 13 March)

Date Brightness Start Highest point End Pass type
(mag) Time Alt. Az. Time Alt. Az. Time Alt. Az.
14 Mar ? 19:24:17 22° ENE 19:24:42 23° ENE 19:28:07 10° NNE visible
14 Mar ? 21:01:34 40° WNW 21:01:34 40° WNW 21:04:55 10° NNW visible
15 Mar ? 19:43:26 32° ENE 19:43:37 32° ENE 19:47:32 10° N visible
15 Mar ? 21:20:43 27° WNW 21:20:43 27° WNW 21:23:44 10° NNW visible
16 Mar ? 20:02:35 49° ENE 20:02:35 49° ENE 20:06:48 10° N visible
16 Mar ? 21:39:51 19° WNW 21:39:51 19° WNW 21:42:19 10° NW visible
17 Mar ? 18:45:01 10° ENE 18:46:08 11° NE 18:47:14 10° NE visible
17 Mar ? 20:21:43 74° NE 20:21:43 74° NE 20:25:58 10° N visible
17 Mar ? 21:58:59 13° WNW 21:58:59 13° WNW 22:00:27 10° WNW visible
18 Mar ? 19:03:34 14° E 19:04:55 16° ENE 19:07:31 10° NNE visible
18 Mar ? 20:40:51 70° WNW 20:40:51 70° WNW 20:45:01 10° NNW visible
19 Mar ? 19:22:42 20° E 19:23:46 22° ENE 19:27:09 10° NNE visible
19 Mar ? 20:59:59 45° W 20:59:59 45° W 21:03:58 10° NNW visible
20 Mar ? 19:41:50 30° E 19:42:39 32° ENE 19:46:33 10° N visible
20 Mar ? 21:19:07 30° W 21:19:07 30° W 21:22:47 10° NNW visible
21 Mar ? 20:00:58 44° E 20:01:35 48° ENE 20:05:49 10° N visible
21 Mar ? 21:38:14 20° W 21:38:14 20° W 21:41:21 10° NW visible
22 Mar ? 18:44:05 10° ENE 18:45:07 11° NE 18:46:10 10° NE visible
22 Mar ? 20:20:05 66° SE 20:20:34 74° ENE 20:24:58 10° N visible
22 Mar ? 21:57:22 13° W 21:57:22 13° W 21:59:29 10° WNW visible
23 Mar ? 19:01:56 12° E 19:03:53 16° ENE 19:06:29 10° NNE visible
23 Mar ? 20:39:13 67° SW 20:39:36 73° WSW 20:44:00 10° NNW visible
